Location: Arcusa
(42.3167°N, 0.0833°W)
Time: 17:32:15
(UTC+00:00)

Cosmos 2344 - Pass Details

Date: 25 January 2020
Orbit: 1254 x 2987 km, 63.3° (Epoch: 21 February)

Event Time Altitude Azimuth Distance (km) Brightness Sun altitude
Exits shadow 04:50:43 53° 304° (NW) 1,535 3.6 -27.7°
Maximum altitude 04:51:06 53° 314° (NW) 1,532 3.7 -27.6°
Drops below altitude 10° 04:59:06 10° 31° (NNE) 3,546 6.2 -26.1°
Sets 05:02:23 0° 37° (NE) 4,696 7.0 -25.5°
